Location: Carrizalito
(10.3833°N, 67.0217°W)
Time: 13:18:22
(UTC+00:00)

Aurora 2 Rocket - Pass Details

Date: 08 December 2021
Orbit: 389 x 1731 km, 25.0° (Epoch: 19 January)

Event Time Altitude Azimuth Distance (km) Brightness Sun altitude
Rises 22:30:36 0° 305° (NW) 2,655 6.3 -6.4°
Reaches altitude 10° 22:32:39 10° 313° (NW) 1,902 5.4 -6.8°
Maximum altitude 22:36:50 42° 24° (NNE) 1,031 3.4 -7.8°
Drops below altitude 10° 22:42:43 10° 94° (E) 2,673 5.2 -9.1°
Enters shadow 22:43:39 - 96° (E) 3,014 5.5 -9.3°
